[[{"header":{"parameterUnit":"m.s-1","parameterCategory":1,"la1":30.2991,"la2":30.254,"lo1":-89.0895,"lo2":-89.0444,"dy":0.0017,"dx":0.0017,"nx":28,"ny":28,"refTime":"2025-07-06T09:00:00:Z","depth":0,"parameterNumber":2,"parameterNumberName":"U-component_of_WINDS"},"data":[0,0,0,0,0,0,0,0,0,0,0,0,0,0,0,0,0,0,0,0,0,0,0,0,0,0,0,0,0,0,0,0,0,0,0,0,0,0,0,0,0,0,0,0,0,0,0,0,0,0,0,0,0,0,0,0,0,0,0.2666,0.2667,0,0.2733,0.2734,0.2734,0.2739,0.2738,0.2737,0.2737,0.2804,0.2807,0.2809,0,0,0,0,0,0,0,0,0,0,0,0,0,0.2543,0.2546,0.2666,0.2667,0.2668,0.2733,0.2734,0.2735,0.2739,0.2738,0.2737,0.2736,0.2803,0.2806,0.2809,0,0,0,0,0,0,0,0,0,0,0,0,0,0.2602,0.2546,0.2666,0.2678,0.268,0.2733,0.2734,0.2735,0.2739,0.2738,0.2737,0.2736,0.2802,0.2806,0.281,0.2855,0,0,0.2821,0.2823,0,0,0,0,0,0,0,0,0.2599,0.2606,0.2675,0.2677,0.2679,0.2726,0.2715,0.2775,0.2739,0.2717,0.2737,0.2735,0.2779,0.2785,0.28,0.2858,0.2861,0.2821,0.2824,0.2825,0.2826,0,0,0,0,0,0,0,0.2595,0.2604,0.2693,0.2676,0.2679,0.268,0.2687,0.2727,0.2753,0.2718,0.2719,0.2727,0.278,0.2796,0.2801,0.2862,0.2821,0.2825,0.2827,0.2828,0.2963,0.2964,0,0,0,0,0,0,0.2588,0.26,0.2691,0.2695,0.2635,0.2683,0.2691,0.2712,0.2753,0.2758,0.2728,0.2727,0.279,0.2797,0.2804,0.2861,0.2825,0.2829,0.2831,0.2962,0.2963,0.2965,0,0,0,0,0,0,0.2586,0.2596,0.2688,0.2648,0.2659,0.2687,0.271,0.2714,0.273,0.276,0.2765,0.2739,0.279,0.2798,0.2843,0.2863,0.283,0.2834,0.296,0.2962,0.2964,0.2974,0,0,0,0,0,0,0.2582,0.2595,0.2613,0.2648,0.2662,0.2726,0.2712,0.2716,0.2737,0.2736,0.2772,0.2777,0.2789,0.2837,0.2846,0.2867,0.2837,0.2959,0.2961,0.2964,0.2972,0.2976,0.298,0,0,0,0,0,0.2578,0.2612,0.2613,0.2624,0.2684,0.2727,0.2735,0.2749,0.2738,0.2756,0.2776,0.2776,0.2859,0.2842,0.2852,0.2875,0.2957,0.296,0.2963,0.297,0.2975,0.298,0,0,0,0,0,0,0.2578,0.2617,0.2619,0.2666,0.2693,0.2727,0.275,0.2753,0.2784,0.2782,0.2798,0.2806,0.285,0.2867,0.2846,0.2922,0.2907,0.2912,0.2909,0.2914,0.2918,0.2913,0.284,0,0,0,0,0,0.2584,0.2615,0.2648,0.2686,0.27,0.2723,0.2742,0.2751,0.2779,0.2791,0.2813,0.2841,0.2874,0.2895,0.2926,0.2975,0.2983,0.2995,0.2999,0.3002,0.3007,0.3035,0.3041,0.2975,0.2975,0.2975,0,0,0.2595,0.2621,0.264,0.2687,0.2709,0.2742,0.2732,0.2767,0.2792,0.2796,0.2839,0.2857,0.2889,0.2936,0.2958,0.2951,0.3027,0.3006,0.3008,0.3011,0.3038,0.3045,0.305,0.2977,0.2976,0.2976,0,0,0.2634,0.2656,0.2691,0.2713,0.2747,0.2763,0.2771,0.2806,0.2818,0.2862,0.2866,0.2895,0.2951,0.2974,0.2993,0.3042,0.3044,0.3052,0.3072,0.3099,0.3104,0.3109,0.3127,0.3134,0.3056,0.3056,0.3056,0,0.2644,0.2693,0.2708,0.2744,0.2765,0.2771,0.2807,0.2828,0.287,0.2885,0.2877,0.2948,0.297,0.3023,0.3035,0.305,0.3061,0.3048,0.3102,0.3107,0.3112,0.313,0.3136,0.3057,0.3057,0.3057,0.3057,0,0.2705,0.2739,0.2763,0.2805,0.2829,0.2864,0.2885,0.2907,0.2914,0.2931,0.2976,0.3003,0.3041,0.3054,0.3061,0.3109,0.3104,0.3099,0.3085,0.3119,0.3136,0.3143,0.3058,0.3058,0.3058,0.3058,0,0,0.2744,0.2795,0.2803,0.2823,0.2861,0.2888,0.2924,0.2962,0.2981,0.3011,0.3042,0.309,0.3086,0.3108,0.3117,0.3141,0.318,0.3134,0.3135,0.3142,0.3235,0.3239,0.3246,0.3181,0.3182,0.3183,0.3233,0,0.2787,0.2851,0.2867,0.2922,0.2955,0.2962,0.2994,0.3021,0.3037,0.3068,0.3086,0.312,0.3112,0.3126,0.315,0.317,0.3199,0.3166,0.321,0.3212,0.3202,0.3255,0.3258,0.3303,0.3239,0.324,0.3241,0,0.2845,0.2877,0.2936,0.2971,0.2986,0.3014,0.305,0.3079,0.3111,0.3121,0.3146,0.3154,0.3192,0.3177,0.323,0.3208,0.3227,0.324,0.3242,0.3247,0.3229,0.3261,0.3318,0.3325,0.3252,0.3251,0.325,0,0.2868,0.2926,0.2969,0.2985,0.3028,0.3048,0.3066,0.3097,0.3119,0.3151,0.3166,0.3201,0.3221,0.3249,0.3266,0.3253,0.3319,0.3304,0.3329,0.3329,0.3343,0.3342,0.3404,0.3355,0.3354,0.3354,0.3354,0,0.2915,0.2951,0.298,0.3007,0.3048,0.3065,0.3105,0.3124,0.3151,0.3182,0.319,0.3219,0.324,0.3272,0.3286,0.3329,0.3337,0.3347,0.3351,0.3347,0.3346,0.3359,0.3357,0.3356,0.3356,0.3355,0.3355,0,0.2947,0.2969,0.3016,0.3053,0.3064,0.3092,0.3124,0.315,0.3168,0.3206,0.3216,0.3244,0.3282,0.3302,0.3349,0.3359,0.3407,0.3409,0.3397,0.3398,0.3422,0.342,0.3495,0.3507,0.345,0.345,0.3451,0,0.2976,0.3004,0.3044,0.3066,0.3085,0.3119,0.3142,0.3161,0.3185,0.3224,0.3246,0.3284,0.3316,0.3377,0.3401,0.3437,0.344,0.3464,0.3445,0.3441,0.3441,0.3439,0.3443,0.3467,0.3468,0.3468,0.3468,0,0.3024,0.3033,0.3066,0.3103,0.3131,0.3161,0.319,0.3207,0.3231,0.3258,0.3297,0.3322,0.3371,0.341,0.3448,0.3468,0.3473,0.3474,0.3482,0.3478,0.3471,0.3476,0.3406,0.3472,0.3472,0.3472,0.3471,0.3471,0.3055,0.3081,0.3114,0.3151,0.3176,0.3204,0.3231,0.3252,0.3285,0.3327,0.3336,0.3378,0.341,0.3463,0.3484,0.3517,0.3513,0.3524,0.3527,0.3529,0.3531,0.3465,0.3524,0.3524,0.3524,0.3524,0.3524,0,0.3104,0.3126,0.316,0.3202,0.3231,0.3234,0.3267,0.3292,0.3328,0.3358,0.339,0.3436,0.3474,0.3502,0.3541,0.3562,0.3565,0.3572,0.357,0.3575,0.3532,0.3522,0.3569,0.3568,0.3568,0.3568,0.3568,0.3568,0.3133,0.3177,0.3191,0.3248,0.327,0.3311,0.333,0.3356,0.3381,0.3432,0.3463,0.3482,0.3511,0.3553,0.3588,0.3595,0.3609,0.3616,0.3623,0.3583,0.3578,0.3573,0.3564,0.3618,0.3618,0.3663,0.3664,0.3664]},{"header":{"parameterUnit":"m.s-1","parameterCategory":1,"la1":30.2991,"la2":30.254,"lo1":-89.0895,"lo2":-89.0444,"dy":0.0017,"dx":0.0017,"nx":28,"ny":28,"refTime":"2025-07-06T09:00:00:Z","depth":0,"parameterNumber":3,"parameterNumberName":"V-component_of_WINDS"},"data":[0,0,0,0,0,0,0,0,0,0,0,0,0,0,0,0,0,0,0,0,0,0,0,0,0,0,0,0,0,0,0,0,0,0,0,0,0,0,0,0,0,0,0,0,0,0,0,0,0,0,0,0,0,0,0,0,0,0,0.5131,0.513,0,0.5027,0.5025,0.5024,0.4929,0.4928,0.4926,0.4925,0.4816,0.4814,0.4812,0,0,0,0,0,0,0,0,0,0,0,0,0,0.5247,0.5246,0.5132,0.513,0.5129,0.5027,0.5025,0.5024,0.4929,0.4928,0.4926,0.4925,0.4817,0.4814,0.4812,0,0,0,0,0,0,0,0,0,0,0,0,0,0.5175,0.5245,0.5132,0.5069,0.5063,0.5027,0.5025,0.5024,0.4929,0.4927,0.4926,0.4924,0.4817,0.4815,0.4812,0.4829,0,0,0.4803,0.4802,0,0,0,0,0,0,0,0,0.518,0.5171,0.508,0.5074,0.5066,0.4989,0.5026,0.4958,0.493,0.498,0.4925,0.4923,0.4875,0.4867,0.4851,0.4824,0.4819,0.4803,0.4802,0.48,0.48,0,0,0,0,0,0,0,0.5185,0.5175,0.509,0.5079,0.507,0.5046,0.5034,0.5013,0.4938,0.4975,0.4968,0.4957,0.4871,0.4854,0.4848,0.4818,0.4803,0.4801,0.4799,0.4798,0.4799,0.48,0,0,0,0,0,0,0.52,0.518,0.5093,0.5087,0.512,0.5045,0.5031,0.5015,0.4938,0.4925,0.4959,0.4953,0.486,0.4851,0.4844,0.4858,0.48,0.4798,0.4796,0.4797,0.4799,0.4801,0,0,0,0,0,0,0.5202,0.5193,0.5097,0.5131,0.5117,0.5045,0.5028,0.5014,0.4998,0.4926,0.4912,0.4956,0.4858,0.4848,0.4833,0.4853,0.4797,0.4794,0.4795,0.4798,0.48,0.4889,0,0,0,0,0,0,0.5206,0.5194,0.5201,0.5132,0.5116,0.509,0.5029,0.5013,0.4993,0.4985,0.4919,0.4906,0.4856,0.4838,0.4831,0.4848,0.4792,0.4793,0.4796,0.4799,0.4884,0.4894,0.4903,0,0,0,0,0,0.5211,0.5229,0.5202,0.5192,0.5123,0.5091,0.5082,0.5024,0.4995,0.5001,0.4954,0.4908,0.4853,0.4838,0.4828,0.4846,0.4791,0.4795,0.4799,0.4879,0.4892,0.4902,0,0,0,0,0,0,0.5301,0.5219,0.5187,0.5185,0.5146,0.5075,0.508,0.5039,0.5007,0.5,0.4929,0.4915,0.4909,0.4875,0.486,0.4858,0.4816,0.4818,0.488,0.4891,0.4901,0.4909,0.479,0,0,0,0,0,0.5321,0.5303,0.5232,0.5237,0.5219,0.5153,0.5138,0.5096,0.5053,0.5036,0.4988,0.4947,0.492,0.4904,0.4875,0.4878,0.4862,0.4886,0.4895,0.4903,0.4906,0.4905,0.4914,0.4813,0.4813,0.4813,0,0,0.5362,0.5315,0.5308,0.5254,0.5219,0.5201,0.514,0.5124,0.511,0.5033,0.5017,0.4981,0.493,0.4925,0.492,0.4897,0.493,0.4908,0.4915,0.4913,0.491,0.4919,0.4928,0.4816,0.4815,0.4815,0,0,0.5426,0.5389,0.5389,0.5355,0.5303,0.5259,0.526,0.5195,0.5168,0.5151,0.5093,0.5075,0.503,0.4996,0.4973,0.5026,0.4982,0.5018,0.5068,0.5068,0.5076,0.5082,0.5101,0.5108,0.5021,0.5021,0.5022,0,0.5483,0.5455,0.5394,0.5381,0.5359,0.5289,0.5288,0.5258,0.5199,0.5185,0.516,0.5102,0.5063,0.5049,0.5062,0.5046,0.5043,0.5025,0.508,0.5086,0.5091,0.5108,0.5115,0.5026,0.5026,0.5025,0.5025,0,0.5527,0.5509,0.5514,0.546,0.5438,0.5432,0.5369,0.5354,0.5315,0.5274,0.5257,0.5208,0.5168,0.5161,0.5123,0.5142,0.5129,0.5093,0.5049,0.5107,0.5121,0.5127,0.5033,0.5031,0.503,0.5029,0,0,0.5645,0.5558,0.5561,0.5535,0.5473,0.5457,0.5447,0.5409,0.5397,0.5359,0.5348,0.5312,0.5279,0.5253,0.5209,0.521,0.5254,0.5173,0.5171,0.519,0.5271,0.5299,0.5307,0.5225,0.5226,0.5226,0.5275,0,0.57,0.5678,0.5623,0.5618,0.56,0.5534,0.5525,0.5485,0.5446,0.5425,0.5381,0.5357,0.5314,0.5298,0.5295,0.5249,0.5269,0.5245,0.5214,0.5213,0.5228,0.5315,0.5343,0.5392,0.5281,0.5282,0.5282,0,0.576,0.5727,0.5721,0.5659,0.5649,0.5643,0.5603,0.5583,0.5537,0.5509,0.548,0.5433,0.5417,0.5377,0.5356,0.534,0.5324,0.53,0.53,0.5295,0.5251,0.5311,0.5406,0.5414,0.5291,0.529,0.5289,0,0.5847,0.58,0.5791,0.5771,0.5699,0.5696,0.5666,0.5617,0.5598,0.5563,0.5549,0.5513,0.5493,0.5466,0.541,0.5386,0.5394,0.5349,0.5369,0.5371,0.5374,0.5375,0.5467,0.5364,0.5364,0.5364,0.5364,0,0.5913,0.5912,0.5829,0.5823,0.5819,0.5756,0.5754,0.5717,0.5675,0.566,0.56,0.5587,0.5514,0.5493,0.5448,0.5437,0.5428,0.5404,0.5393,0.541,0.5413,0.5398,0.5393,0.5366,0.5366,0.5365,0.5365,0,0.6009,0.5953,0.5938,0.5872,0.5855,0.5856,0.5798,0.579,0.5747,0.573,0.5722,0.5655,0.5627,0.5568,0.5524,0.5494,0.5493,0.5472,0.5509,0.5501,0.5525,0.5524,0.5611,0.562,0.5512,0.5514,0.5514,0,0.6055,0.6052,0.5986,0.5972,0.5944,0.5923,0.5903,0.584,0.5821,0.5768,0.5766,0.5733,0.5704,0.5662,0.5609,0.5575,0.5552,0.5585,0.5546,0.5564,0.5552,0.5553,0.5552,0.5594,0.5595,0.5597,0.5598,0,0.6141,0.6114,0.6088,0.6053,0.6031,0.5999,0.5965,0.5957,0.5885,0.5867,0.5838,0.5815,0.577,0.5738,0.5696,0.5664,0.5619,0.561,0.5613,0.563,0.5652,0.564,0.5532,0.5609,0.5607,0.5607,0.5606,0.5606,0.6213,0.6208,0.6161,0.6133,0.6101,0.607,0.6059,0.6016,0.5991,0.5949,0.5914,0.5888,0.5841,0.578,0.5751,0.5729,0.5707,0.5711,0.5712,0.5714,0.5721,0.5656,0.5721,0.572,0.572,0.572,0.5719,0,0.6297,0.6263,0.6239,0.6193,0.6171,0.6132,0.6091,0.6076,0.6054,0.6015,0.5987,0.5954,0.5922,0.5868,0.5832,0.5825,0.5803,0.5817,0.5817,0.581,0.5743,0.5744,0.5835,0.5835,0.5835,0.5835,0.5835,0.5835,0.6338,0.6327,0.6294,0.6267,0.6232,0.6207,0.6188,0.6159,0.6127,0.6092,0.6067,0.6031,0.5985,0.5946,0.5915,0.59,0.5889,0.591,0.5888,0.5826,0.5815,0.5805,0.5805,0.5908,0.5908,0.5957,0.5958,0.5958]}]]